| time (UTC) | temp F | wind direction | speed MPH | gust MPH | rain 1hr in | rain 24hr in | rain mn in | humidity % | barometer mb |
| 20260509071536 | 63 | 65 | 0.0 | 0.0 | 0.00 | 0.00 | 0.00 | 78 | 1010.6 |
| 20260509070034 | 63 | 65 | 0.0 | 0.0 | 0.00 | 0.00 | 0.00 | 78 | 1010.1 |
| 20260509064534 | 63 | 18 | 0.0 | 0.0 | 0.00 | 0.00 | 0.00 | 78 | 1009.0 |
| 20260509063033 | 63 | 93 | 0.0 | 1.0 | 0.00 | 0.00 | 0.00 | 80 | 1008.9 |
| 20260509061534 | 62 | 104 | 0.0 | 0.0 | 0.00 | 0.00 | 0.00 | 81 | 1008.4 |
| 20260509060030 | 62 | 100 | 0.0 | 0.0 | 0.00 | 0.00 | 0.00 | 82 | 1010.0 |
| 20260509054536 | 62 | 108 | 0.0 | 0.0 | 0.00 | 0.00 | 0.00 | 83 | 1010.0 |
| 20260509053031 | 0 | 0.0 | 0.0 | 0.00 | 0.00 | 0.00 | 1009.8 | ||
| 20260509051521 | 0 | 0.0 | 0.0 | 0.00 | 0.00 | 0.00 | 1009.8 | ||
| 20260509050025 | 0 | 0.0 | 0.0 | 0.00 | 0.00 | 0.00 | 1009.8 | ||
| 20260509044515 | 0 | 0.0 | 0.0 | 0.00 | 0.00 | 0.00 | 1009.7 | ||
| 20260509043018 | 61 | 105 | 0.0 | 0.0 | 0.00 | 0.00 | 0.00 | 82 | 1009.6 |
| 20260509041507 | 62 | 91 | 0.0 | 3.0 | 0.00 | 0.00 | 0.00 | 82 | 1009.9 |
| 20260509040007 | 62 | 86 | 0.0 | 0.0 | 0.00 | 0.00 | 0.00 | 83 | 1009.7 |
| 20260509034511 | 62 | 105 | 0.0 | 2.0 | 0.00 | 0.00 | 0.00 | 83 | 1009.9 |
| 20260509033008 | 62 | 82 | 0.0 | 2.0 | 0.00 | 0.00 | 0.00 | 82 | 1009.9 |
| 20260509031504 | 62 | 84 | 0.0 | 1.0 | 0.00 | 0.00 | 0.00 | 82 | 1009.9 |
| 20260509030000 | 62 | 91 | 0.0 | 3.0 | 0.00 | 0.00 | 0.00 | 81 | 1009.9 |
| 20260509024559 | 62 | 108 | 0.0 | 1.0 | 0.00 | 0.00 | 0.00 | 81 | 1010.1 |
| 20260509023057 | 62 | 96 | 0.0 | 3.0 | 0.00 | 0.00 | 0.00 | 79 | 1010.2 |
| 20260509021557 | 62 | 76 | 0.0 | 0.0 | 0.00 | 0.00 | 0.00 | 79 | 1010.4 |
| 20260509020056 | 62 | 84 | 0.0 | 0.0 | 0.00 | 0.00 | 0.00 | 79 | 1010.3 |
| 20260509014555 | 61 | 117 | 0.0 | 0.0 | 0.00 | 0.00 | 0.00 | 81 | 1010.4 |
| 20260509013101 | 61 | 108 | 0.0 | 0.0 | 0.00 | 0.00 | 0.00 | 81 | 1010.6 |
| 20260509011551 | 61 | 76 | 0.0 | 0.0 | 0.00 | 0.00 | 0.00 | 81 | 1010.7 |
| 20260509010048 | 61 | 93 | 0.0 | 0.0 | 0.00 | 0.00 | 0.00 | 82 | 1010.9 |
| 20260509004609 | 61 | 93 | 0.0 | 0.0 | 0.00 | 0.00 | 0.00 | 83 | 1011.1 |
| 20260509003046 | 61 | 94 | 0.0 | 0.0 | 0.00 | 0.00 | 0.00 | 84 | 1011.4 |
| 20260509001543 | 61 | 94 | 0.0 | 0.0 | 0.00 | 0.00 | 0.00 | 85 | 1011.5 |
| 20260509000040 | 61 | 94 | 0.0 | 0.0 | 0.00 | 0.00 | 0.00 | 85 | 1011.6 |
| 20260508234540 | 61 | 108 | 0.0 | 0.0 | 0.00 | 0.00 | 0.00 | 86 | 1011.7 |
| 20260508233039 | 61 | 96 | 0.0 | 0.0 | 0.00 | 0.00 | 0.00 | 86 | 1011.7 |
| 20260508231538 | 61 | 89 | 0.0 | 0.0 | 0.00 | 0.00 | 0.00 | 86 | 1011.7 |
| 20260508230050 | 61 | 91 | 0.0 | 0.0 | 0.00 | 0.00 | 0.00 | 85 | 1011.8 |
| 20260508224533 | 62 | 93 | 0.0 | 0.0 | 0.00 | 0.00 | 0.00 | 84 | 1012.0 |
| 20260508223030 | 62 | 104 | 0.0 | 0.0 | 0.00 | 0.00 | 0.00 | 84 | 1012.3 |
| 20260508221528 | 62 | 89 | 0.0 | 0.0 | 0.00 | 0.00 | 0.00 | 84 | 1012.2 |
| 20260508220025 | 63 | 96 | 0.0 | 0.0 | 0.00 | 0.00 | 0.00 | 84 | 1012.3 |
| 20260508214526 | 63 | 103 | 0.0 | 0.0 | 0.00 | 0.00 | 0.00 | 84 | 1012.4 |
| 20260508213024 | 63 | 107 | 0.0 | 0.0 | 0.00 | 0.00 | 0.00 | 85 | 1012.3 |
| 20260508211527 | 63 | 100 | 0.0 | 0.0 | 0.00 | 0.00 | 0.00 | 85 | 1012.2 |
| 20260508210025 | 63 | 110 | 0.0 | 0.0 | 0.00 | 0.00 | 0.00 | 86 | 1012.3 |
| 20260508204523 | 63 | 110 | 0.0 | 0.0 | 0.00 | 0.00 | 0.00 | 85 | 1012.2 |
| 20260508203022 | 63 | 111 | 0.0 | 0.0 | 0.00 | 0.00 | 0.00 | 84 | 1012.1 |
| 20260508201522 | 63 | 115 | 0.0 | 0.0 | 0.00 | 0.00 | 0.00 | 84 | 1012.0 |
| 20260508200031 | 63 | 111 | 0.0 | 0.0 | 0.00 | 0.00 | 0.00 | 83 | 1011.8 |
| 20260508194521 | 63 | 110 | 0.0 | 0.0 | 0.00 | 0.01 | 0.00 | 83 | 1011.7 |
| 20260508193020 | 63 | 139 | 0.0 | 0.0 | 0.00 | 0.01 | 0.00 | 82 | 1011.6 |
| 20260508191520 | 64 | 117 | 0.0 | 0.0 | 0.00 | 0.01 | 0.00 | 82 | 1011.2 |
| 20260508190021 | 64 | 141 | 0.0 | 0.0 | 0.00 | 0.01 | 0.00 | 81 | 1011.0 |
| 20260508184533 | 65 | 128 | 0.0 | 0.0 | 0.00 | 0.00 | 0.00 | 80 | 1010.9 |
| 20260508183017 | 66 | 150 | 0.0 | 2.0 | 0.00 | 0.35 | 0.00 | 78 | 1010.8 |
| 20260508181535 | 66 | 108 | 0.0 | 1.0 | 0.00 | 0.35 | 0.00 | 76 | 1010.7 |
| 20260508180015 | 66 | 113 | 0.0 | 2.0 | 0.00 | 0.35 | 0.00 | 75 | 1010.7 |
| 20260508174517 | 67 | 139 | 0.0 | 7.0 | 0.00 | 0.37 | 0.00 | 75 | 1010.7 |
| 20260508173013 | 67 | 155 | 0.0 | 3.0 | 0.00 | 0.37 | 0.00 | 72 | 1010.7 |
| 20260508171513 | 68 | 161 | 0.0 | 6.0 | 0.00 | 0.37 | 0.00 | 69 | 1010.5 |
| 20260508170016 | 68 | 173 | 0.0 | 6.0 | 0.00 | 0.37 | 0.00 | 69 | 1010.5 |
| 20260508164511 | 68 | 139 | 0.0 | 1.0 | 0.00 | 0.37 | 0.00 | 67 | 1010.6 |
| 20260508163010 | 68 | 127 | 0.0 | 4.0 | 0.00 | 0.37 | 0.00 | 67 | 1010.5 |
| 20260508161510 | 68 | 156 | 0.0 | 3.0 | 0.00 | 0.37 | 0.00 | 70 | 1010.5 |
| 20260508160015 | 68 | 128 | 0.0 | 10.0 | 0.00 | 0.37 | 0.00 | 72 | 1010.3 |
| 20260508154512 | 67 | 145 | 1.0 | 11.0 | 0.00 | 0.37 | 0.00 | 74 | 1010.0 |
| 20260508153009 | 68 | 124 | 1.0 | 7.0 | 0.00 | 0.37 | 0.00 | 74 | 1010.0 |
| 20260508151511 | 68 | 142 | 0.0 | 10.0 | 0.00 | 0.37 | 0.00 | 72 | 1010.0 |
| 20260508150012 | 68 | 110 | 0.0 | 10.0 | 0.00 | 0.37 | 0.00 | 73 | 1010.2 |
| 20260508144510 | 69 | 168 | 0.0 | 7.0 | 0.00 | 0.37 | 0.00 | 70 | 1010.6 |
| 20260508143008 | 68 | 184 | 1.0 | 10.0 | 0.00 | 0.37 | 0.00 | 69 | 1010.8 |
| 20260508141505 | 69 | 122 | 0.0 | 1.0 | 0.00 | 0.37 | 0.00 | 67 | 1010.9 |
| 20260508140007 | 69 | 136 | 0.0 | 0.0 | 0.00 | 0.37 | 0.00 | 66 | 1011.0 |
| 20260508134603 | 68 | 111 | 0.0 | 0.0 | 0.00 | 0.37 | 0.00 | 68 | 1011.1 |
| 20260508133119 | 67 | 20 | 0.0 | 0.0 | 0.00 | 0.37 | 0.00 | 71 | 1011.4 |
| 20260508131553 | 65 | 340 | 0.0 | 0.0 | 0.00 | 0.37 | 0.00 | 78 | 1011.8 |
| 20260508130053 | 64 | 319 | 0.0 | 0.0 | 0.00 | 0.37 | 0.00 | 83 | 1011.9 |
| 20260508124552 | 63 | 181 | 0.0 | 0.0 | 0.00 | 0.37 | 0.00 | 81 | 1012.0 |
| 20260508123101 | 65 | 274 | 0.0 | 0.0 | 0.00 | 0.37 | 0.00 | 76 | 1012.1 |
| 20260508121550 | 65 | 222 | 0.0 | 0.0 | 0.00 | 0.37 | 0.00 | 74 | 1012.1 |
| 20260508120052 | 65 | 177 | 0.0 | 0.0 | 0.00 | 0.37 | 0.00 | 76 | 1012.0 |
| 20260508114549 | 65 | 139 | 0.0 | 0.0 | 0.00 | 0.38 | 0.00 | 77 | 1012.0 |
| 20260508113102 | 64 | 118 | 0.0 | 0.0 | 0.00 | 0.38 | 0.00 | 78 | 1012.0 |
| 20260508111548 | 64 | 117 | 0.0 | 0.0 | 0.00 | 0.38 | 0.00 | 79 | 1011.8 |
| 20260508110054 | 64 | 126 | 0.0 | 0.0 | 0.00 | 0.38 | 0.00 | 78 | 1011.9 |
| 20260508104546 | 64 | 130 | 0.0 | 0.0 | 0.00 | 0.38 | 0.00 | 78 | 1012.0 |
| 20260508103056 | 64 | 149 | 0.0 | 0.0 | 0.00 | 0.38 | 0.00 | 78 | 1012.4 |
| 20260508101547 | 64 | 136 | 0.0 | 0.0 | 0.00 | 0.38 | 0.00 | 76 | 1012.3 |
| 20260508100042 | 64 | 136 | 0.0 | 0.0 | 0.00 | 0.38 | 0.00 | 75 | 1012.2 |
| 20260508094542 | 65 | 139 | 0.0 | 0.0 | 0.00 | 0.38 | 0.00 | 75 | 1011.9 |
| 20260508093040 | 65 | 115 | 0.0 | 0.0 | 0.00 | 0.38 | 0.00 | 75 | 1012.1 |
| 20260508091549 | 65 | 129 | 0.0 | 0.0 | 0.00 | 0.38 | 0.00 | 76 | 1012.1 |
| 20260508090056 | 64 | 128 | 0.0 | 0.0 | 0.00 | 0.38 | 0.00 | 78 | 1012.2 |
| 20260508084533 | 63 | 149 | 0.0 | 0.0 | 0.00 | 0.38 | 0.00 | 82 | 1011.9 |
| 20260508083028 | 61 | 350 | 0.0 | 0.0 | 0.00 | 0.38 | 0.00 | 85 | 1011.5 |
| 20260508081523 | 60 | 342 | 0.0 | 0.0 | 0.00 | 0.38 | 0.00 | 87 | 1011.6 |
| 20260508080024 | 59 | 333 | 0.0 | 0.0 | 0.00 | 0.38 | 0.00 | 87 | 1011.6 |
| 20260508074520 | 58 | 23 | 0.0 | 0.0 | 0.00 | 0.38 | 0.00 | 87 | 1011.7 |
| 20260508073014 | 57 | 337 | 0.0 | 1.0 | 0.00 | 0.38 | 0.00 | 89 | 1011.6 |